sat.trackr.live / text

‹ back to catalog

STARLINK-2448

NORAD 48111 · 2021-027V

PAYLOAD ACTIVE UNKNOWN

§ Identity

Operator
Country
US
Launch date
2021-04-07
Launch site
AFETR
Launch vehicle
Mass (kg)
RCS (m²)

Purposes: comms

External: N2YO · Heavens-Above · Gunter

§ Orbital elements

Epoch: 2026-09-09T14:23:05.084160Z

Period
92.73 min
Inclination
53.1534°
Eccentricity
0.0002441
Mean motion
15.52849523 rev/d
Perigee alt
406.8 km
Apogee alt
410.1 km
Semi-major
6,786.5 km
B*
9.8863e-4
RAAN
6.3006°
Arg perigee
352.9179°
Mean anomaly
7.1796°
Rev number
30,102

§ Raw data

STARLINK-24481 48111U 21027V   26252.59936440  .00062416  00000+0  98863-3 0  99992 48111  53.1534   6.3006 0002441 352.9179   7.1796 15.52849523301020

JSON: /api/v1/satellites/48111 · /tle

For live sub-satellite position, see the globe view (requires WebGL).

§ Visibility from observer

Set your observer location to see the next 7 days of passes ≥ 10°. The values pass through the URL so the page stays shareable.

No JS? Fill the form by hand. The geolocation button needs JavaScript.